Flag for China Weather past 2 weeks in Chengdu, Sichuan, China

Now
61 °F

Fog.


Feels Like: 61 °F
Forecast: 62 / 76 °F
Wind: No wind

Location: Chengdu Airport

Current Time: Mar 29, 2015 at 3:26:48 AM

Latest Report: Mar 29, 2015 at 2:00 AM


Visibility: 2 mi

Pressure: 29.95 "Hg

Humidity: 88%

Dew point: 57 °F

Location of ChengduLocation

Historic Weather in Chengdu — Graph

°F

Chengdu temperature yesterday

Maximum temperature yesterday: 68 °F (at 12:00 PM)
Minimum temperature yesterday: 59 °F (at 1:00 AM)
Average temperature yesterday: 63 °F

Past Weeks' High & Low Weather Summary

 TemperatureHumidityPressure
High79 °F (Mar 17, 3:00 PM)94% (Mar 21, 6:00 AM)30.33 "Hg (Mar 21, 6:00 AM)
Low50 °F (Mar 21, 6:00 AM)25% (Mar 21, 6:00 PM)29.59 "Hg (Mar 17, 5:00 PM)
Average64 °F63%30.04 "Hg
* Reported Mar 14 2:00 AM — Mar 29 2:00 AM, Chengdu, Weather by CustomWeather, © 2015

Note: Actual official high and low records may vary slightly from our data, if they occured in-between our weather recording intervals... More about our weather records

Advertising

Chengdu weather history for previous 24 hours

 ConditionsComfort  
Time TempWeatherWind HumidityBarometerVisibility
2:00 AM
Sun, Mar 29
61 °FFog.No wind88%29.95 "Hg1 mi
1:00 AM59 °FFog.No wind94%29.95 "Hg2 mi
12:00 AM61 °FFog.1 mph88%29.98 "Hg2 mi
11:00 PM
Sat, Mar 28
61 °FFog.1 mph88%29.98 "Hg2 mi
10:00 PM63 °FSprinkles. Fog.3 mph83%29.95 "Hg2 mi
9:00 PM64 °FFog.1 mph73%29.98 "Hg2 mi
8:00 PM64 °FFog.1 mph73%29.92 "Hg2 mi
7:00 PM64 °FFog.1 mph73%29.92 "Hg2 mi
6:00 PM66 °FFog.1 mph73%29.92 "Hg2 mi
5:00 PM66 °FScattered clouds.3 mph68%29.89 "Hg2 mi
4:00 PM68 °FScattered clouds.1 mph64%29.92 "Hg2 mi
3:00 PM68 °FScattered clouds.1 mph64%29.98 "Hg2 mi
2:00 PM68 °FScattered clouds.1 mph60%30.01 "Hg2 mi
1:00 PM68 °FScattered clouds.3 mph64%30.04 "Hg2 mi
12:00 PM68 °FScattered clouds.3 mph60%30.07 "Hg1 mi
11:00 AM64 °FFog.1 mph78%30.12 "Hg1 mi
10:00 AM63 °FLight rain. Fog.No wind88%30.12 "Hg1 mi
9:00 AM61 °FLight rain. Fog.1 mph88%30.12 "Hg1 mi
8:00 AM61 °FFog.1 mph88%30.09 "Hg1 mi
7:00 AM59 °FFog.No wind94%30.07 "Hg1 mi
6:00 AM61 °FFog.No wind88%30.07 "Hg1 mi
5:00 AM59 °FFog.3 mph94%30.07 "Hg1 mi
4:00 AM61 °FFog.No wind88%30.07 "Hg2 mi
3:00 AM61 °FFog.3 mph83%30.09 "Hg2 mi
Weather by CustomWeather, © 2015

See weather overviewHow to use our weather pages